R/V Knorr Calliope CSV data file  (Time stamps are GMT)
Date, Time_GMT, Depth12, Depth35, Air_Temp, WXT5_Ta, WXT5_Pa, dec_lat, dec_lon, EDO_knt, GPS_COG, GPS_SOG, Gyro, IMET_BPR, IMET_SWR, WXT5_Ri, WXT5_Rc, HRH, WXT5_Ua, WXT5_Dm, WXT5_Sm, SBE45C, SBE45S, SBE45T, Salinity, SSCND, Fluorometer, SSTMP, SSV, Wnd_Dir, TWD_5, Wnd_Spd, TWS_5, HdChkSum=52
2008/03/30, 00:00:36, 2818.00, 0.00, 5.40, 6.20, 994.9, 56.3862270, -27.0880220, , 50.10, 4.76, 36.40, 996.11, 0.30, 0.8, 112.30, 86.57, 84.3, 331, 17.1, 37.39850, 35.01210, 9.2556, 35.0121, 37.3985, 100.40, 8.0015, 1482.51, 4.40, 358.6, 13.25, 15.5, 52
2008/03/30, 00:01:36, 2819.00, 0.00, 5.40, 6.20, 994.8, 56.3873550, -27.0859880, , 46.70, 6.12, 34.30, 996.61, 0.30, 1.2, 112.32, 86.72, 84.8, 334, 17.2, 37.42310, 35.05750, 9.2354, 35.0575, 37.4231, 99.20, 7.9949, 1482.51, 0.70, 358.0, 12.85, 15.0, 52
2008/03/30, 00:02:36, 2818.00, 0.00, 5.38, 6.20, 995.5, 56.3885570, -27.0839280, , 48.00, 7.09, 36.00, 996.23, 0.20, 0.2, 112.33, 86.84, 84.7, 330, 18.7, 37.43520, 35.05760, 9.2482, 35.0576, 37.4352, 97.00, 7.9884, 1482.49, 2.60, 354.6, 12.53, 16.3, 52
2008/03/30, 00:03:36, 2817.00, 0.00, 5.32, 6.10, 994.8, 56.3897900, -27.0818180, , 44.40, 7.96, 34.40, 996.33, 0.50, 0.5, 112.34, 86.62, 84.2, 330, 17.8, 37.40530, 35.05590, 9.2182, 35.0559, 37.4053, 97.30, 7.9809, 1482.47, 359.80, 351.4, 13.06, 15.0, 52
2008/03/30, 00:04:35, 2819.00, 0.00, 5.35, 6.10, 995.4, 56.3911220, -27.0796620, , 40.00, 8.34, 37.10, 996.41, 0.20, 0.4, 112.34, 86.50, 84.4, 332, 19.0, 37.38340, 35.05190, 9.1990, 35.0519, 37.3834, 96.70, 7.9718, 1482.43, 2.90, 358.0, 12.70, 15.6, 52
2008/03/30, 00:05:36, 2820.00, 0.00, 5.40, 6.10, 995.5, 56.3922800, -27.0775250, , 45.20, 4.88, 34.50, 996.44, 0.40, 0.7, 112.36, 86.52, 84.7, 336, 18.7, 37.37800, 35.05270, 9.1924, 35.0527, 37.3780, 96.10, 7.9634, 1482.40, 4.10, 2.9, 13.86, 16.8, 52
2008/03/30, 00:06:36, 2819.00, 0.00, 5.24, 6.10, 995.3, 56.3935330, -27.0756270, , 36.60, 5.50, 36.90, 996.11, 0.20, 0.3, 112.36, 86.33, 83.9, 334, 20.9, 37.42560, 35.05530, 9.2403, 35.0553, 37.4256, 97.00, 7.9555, 1482.36, 10.90, 4.4, 14.08, 18.5, 52
2008/03/30, 00:07:36, 2821.00, 0.00, 5.26, 6.00, 995.0, 56.3947750, -27.0734080, , 35.60, 6.05, 34.70, 996.07, 0.20, 0.0, 112.36, 86.08, 83.4, 331, 20.3, 37.35400, 35.05240, 9.1672, 35.0524, 37.3540, 96.70, 7.9472, 1482.33, 3.10, 357.9, 14.25, 17.7, 52
2008/03/30, 00:08:35, 2824.00, 0.00, 5.24, 5.90, 995.1, 56.3961200, -27.0712180, , 39.70, 7.32, 34.60, 996.27, 0.40, 0.0, 112.36, 85.52, 82.9, 329, 18.3, 37.35590, 35.05170, 9.1700, 35.0517, 37.3559, 96.70, 7.9406, 1482.31, 0.20, 352.5, 14.09, 15.5, 52
2008/03/30, 00:09:36, 2824.00, 0.00, 5.18, 5.90, 995.3, 56.3973480, -27.0691050, , 52.90, 7.21, 34.70, 996.56, 0.30, 0.0, 112.36, 85.25, 83.0, 332, 18.8, 37.35000, 35.05140, 9.1640, 35.0514, 37.3500, 97.30, 7.9347, 1482.29, 356.60, 354.6, 13.61, 16.6, 52
2008/03/30, 00:10:36, 4383.00, 0.00, 5.26, 5.90, 995.8, 56.3984820, -27.0669400, , 55.00, 8.45, 34.40, 996.11, 0.40, 0.1, 112.37, 85.23, 83.0, 330, 17.8, 37.33140, 35.04790, 9.1478, 35.0479, 37.3314, 96.10, 7.9289, 1482.26, 355.90, 349.1, 13.69, 15.6, 52
2008/03/30, 00:11:36, 2828.00, 0.00, 5.29, 6.00, 996.1, 56.3994570, -27.0651820, , 54.10, 6.85, 34.40, 995.86, 0.20, 0.6, 112.38, 85.01, 83.2, 331, 17.3, 37.32360, 35.04770, 9.1397, 35.0477, 37.3236, 98.00, 7.9229, 1482.24, 352.40, 352.7, 13.11, 15.3, 52
2008/03/30, 00:12:36, 2830.00, 0.00, 5.29, 6.00, 995.7, 56.4007500, -27.0630080, , 53.50, 7.10, 33.30, 996.20, 0.50, 0.4, 112.39, 84.69, 83.1, 330, 16.7, 37.28310, 34.98800, 9.1574, 34.9880, 37.2831, 101.20, 7.9169, 1482.17, 353.70, 349.6, 13.23, 14.8, 52
2008/03/30, 00:13:36, 0.00, 0.00, 5.32, 6.00, 995.4, 56.4019780, -27.0609520, , 38.70, 2.54, 35.90, 996.87, 0.20, 1.3, 112.41, 84.42, 83.3, 329, 18.0, 37.28100, 35.01820, 9.1244, 35.0182, 37.2810, 96.10, 7.9122, 1482.18, 6.50, 359.9, 13.68, 17.0, 52
2008/03/30, 00:14:36, 0.00, 0.00, 5.43, 6.00, 995.1, 56.4030420, -27.0590430, , 29.90, 6.58, 35.50, 996.04, 0.50, 0.6, 112.42, 84.25, 83.3, 331, 17.1, 37.30780, 35.04120, 9.1295, 35.0412, 37.3078, 96.70, 7.9069, 1482.14, 1.50, 358.1, 12.58, 14.1, 52
2008/03/30, 00:15:36, 2823.00, 0.00, 5.40, 6.00, 996.0, 56.4041670, -27.0569820, , 35.00, 7.97, 33.80, 996.14, 0.40, 1.1, 112.44, 84.11, 83.5, 327, 16.2, 37.33040, 35.04550, 9.1493, 35.0455, 37.3304, 96.70, 7.9019, 1482.16, 356.20, 347.7, 11.42, 13.1, 52
2008/03/30, 00:16:36, 2826.00, 0.00, 5.54, 6.10, 995.8, 56.4053570, -27.0550470, , 40.70, 6.91, 35.00, 996.47, 0.40, 0.6, 112.45, 84.38, 84.3, 327, 17.5, 37.28800, 35.03760, 9.1121, 35.0376, 37.2880, 96.70, 7.8974, 1482.14, 354.90, 350.6, 10.79, 15.0, 52
2008/03/30, 00:17:36, 2825.00, 0.00, 5.54, 6.20, 995.9, 56.4064070, -27.0530270, , 42.60, 4.94, 36.60, 996.42, 0.30, 0.1, 112.45, 84.52, 84.8, 328, 18.4, 37.29440, 35.04420, 9.1122, 35.0442, 37.2944, 97.00, 7.8938, 1482.12, 358.40, 356.5, 12.40, 16.5, 52
2008/03/30, 00:18:36, 2825.00, 0.00, 5.49, 6.20, 995.2, 56.4076150, -27.0509750, , 38.40, 6.61, 34.30, 996.54, 0.40, 0.1, 112.46, 84.23, 84.3, 329, 17.1, 37.31330, 35.04010, 9.1366, 35.0401, 37.3133, 98.50, 7.8912, 1482.11, 356.00, 352.7, 13.22, 14.6, 52
2008/03/30, 00:19:36, 2833.00, 0.00, 5.49, 6.10, 995.4, 56.4089630, -27.0487420, , 50.90, 8.14, 34.60, 996.63, 0.20, 0.4, 112.46, 83.74, 84.3, 326, 19.5, 37.28310, 35.03420, 9.1104, 35.0342, 37.2831, 97.30, 7.8899, 1482.05, 355.00, 347.1, 12.66, 17.3, 52
2008/03/30, 00:20:36, 2832.00, 0.00, 5.63, 6.10, 995.4, 56.4102880, -27.0466820, , 35.00, 7.13, 34.00, 995.91, 0.20, 0.4, 112.47, 83.30, 83.7, 329, 16.7, 37.27670, 35.03960, 9.0981, 35.0396, 37.2767, 97.60, 7.8888, 1482.10, 359.70, 352.0, 12.89, 13.8, 52
2008/03/30, 00:21:36, 2836.00, 0.00, 5.65, 6.10, 995.7, 56.4116780, -27.0445350, , 25.20, 6.60, 35.10, 996.21, 0.50, 0.2, 112.47, 83.22, 84.0, 327, 16.6, 37.28560, 35.03660, 9.1107, 35.0366, 37.2856, 97.60, 7.8882, 1482.10, 0.00, 353.5, 11.76, 13.6, 52
2008/03/30, 00:22:36, 2834.00, 0.00, 5.65, 6.20, 995.4, 56.4131150, -27.0422900, , 42.70, 7.42, 34.50, 996.13, 0.50, 0.4, 112.48, 83.37, 84.3, 328, 16.4, 37.28430, 35.03950, 9.1064, 35.0395, 37.2843, 97.00, 7.8882, 1482.10, 351.00, 349.3, 12.25, 13.8, 52
2008/03/30, 00:23:36, 2836.00, 0.00, 5.68, 6.30, 995.6, 56.4144970, -27.0400850, , 18.80, 5.64, 32.80, 996.42, 0.50, 0.1, 112.48, 83.47, 84.3, 326, 18.4, 37.25990, 35.04060, 9.0793, 35.0406, 37.2599, 96.70, 7.8871, 1482.09, 356.40, 352.4, 12.98, 15.8, 52
2008/03/30, 00:24:36, 2837.00, 0.00, 5.74, 6.20, 995.6, 56.4159850, -27.0378950, , 47.40, 5.94, 32.00, 996.78, 0.40, 0.2, 112.49, 83.20, 83.8, 330, 19.7, 37.26640, 35.03870, 9.0880, 35.0387, 37.2664, 97.30, 7.8849, 1482.08, 348.80, 352.3, 14.17, 17.8, 52
2008/03/30, 00:25:36, 2829.00, 0.00, 5.74, 6.30, 995.1, 56.4173970, -27.0358250, , 16.80, 6.74, 35.10, 996.59, 0.40, 1.4, 112.51, 82.66, 83.4, 323, 19.5, 37.24960, 35.03590, 9.0732, 35.0359, 37.2496, 97.30, 7.8823, 1482.07, 1.60, 351.3, 13.88, 16.3, 52
2008/03/30, 00:26:35, 2827.00, 0.00, 5.74, 6.20, 995.4, 56.4185370, -27.0336020, , 28.00, 6.69, 33.60, 996.20, 0.30, 0.0, 112.51, 82.39, 83.3, 328, 17.9, 37.25860, 35.04070, 9.0778, 35.0407, 37.2586, 96.70, 7.8813, 1482.07, 352.20, 352.8, 13.55, 15.0, 52
2008/03/30, 00:27:36, 2829.00, 0.00, 5.74, 6.30, 995.3, 56.4197800, -27.0316650, , 41.30, 8.12, 35.10, 996.21, 0.40, 0.0, 112.51, 82.41, 83.5, 329, 17.1, 37.25240, 35.04030, 9.0715, 35.0403, 37.2524, 98.50, 7.8817, 1482.07, 351.50, 350.8, 12.80, 14.1, 52
2008/03/30, 00:28:36, 2829.00, 0.00, 5.88, 6.30, 995.7, 56.4210680, -27.0296650, , 41.20, 6.69, 33.20, 995.91, 0.50, 0.6, 112.52, 82.51, 83.5, 327, 18.3, 37.26250, 35.03840, 9.0843, 35.0384, 37.2625, 95.80, 7.8831, 1482.08, 352.70, 349.3, 13.42, 16.0, 52
2008/03/30, 00:29:36, 2832.00, 0.00, 5.79, 6.30, 995.3, 56.4224520, -27.0276150, , 24.60, 6.78, 34.10, 996.29, 0.50, 0.4, 112.53, 82.09, 83.1, 326, 17.6, 37.25220, 35.04020, 9.0715, 35.0402, 37.2522, 96.70, 7.8875, 1482.09, 353.80, 351.5, 12.66, 14.6, 52
2008/03/30, 00:30:36, 2831.00, 0.00, 5.79, 6.30, 995.6, 56.4237600, -27.0255750, , 44.10, 6.57, 36.30, 996.32, 0.50, 0.4, 112.54, 82.19, 83.5, 328, 17.8, 37.26150, 35.03890, 9.0827, 35.0389, 37.2615, 96.40, 7.8947, 1482.12, 353.20, 353.5, 13.39, 15.5, 52
2008/03/30, 00:31:36, 2831.00, 0.00, 5.82, 6.30, 995.6, 56.4251680, -27.0233500, , 54.00, 6.46, 34.70, 996.03, 0.60, 0.5, 112.54, 82.26, 83.6, 326, 19.3, 37.24650, 35.03650, 9.0692, 35.0365, 37.2465, 96.40, 7.9019, 1482.14, 355.60, 349.3, 13.57, 17.6, 52
2008/03/30, 00:32:36, 2831.00, 0.00, 5.85, 6.40, 995.1, 56.4266430, -27.0211070, , 43.40, 7.66, 34.40, 996.08, 0.50, 0.1, 112.55, 81.33, 82.7, 327, 19.0, 37.23470, 35.03540, 9.0577, 35.0354, 37.2347, 96.70, 7.9080, 1482.16, 351.50, 349.3, 14.35, 16.4, 52
2008/03/30, 00:33:36, 2832.00, 0.00, 5.77, 6.30, 995.6, 56.4279620, -27.0189750, , 55.20, 7.65, 34.20, 996.46, 0.60, 0.5, 112.56, 80.43, 81.9, 329, 19.6, 37.24590, 35.03670, 9.0684, 35.0367, 37.2459, 98.50, 7.9147, 1482.19, 348.70, 350.3, 14.68, 17.6, 52
2008/03/30, 00:34:36, 2837.00, 0.00, 5.82, 6.30, 995.5, 56.4292430, -27.0171180, , 40.80, 4.77, 38.60, 996.40, 0.60, 1.0, 112.57, 79.86, 81.5, 328, 18.4, 37.24730, 35.03690, 9.0696, 35.0369, 37.2473, 96.70, 7.9211, 1482.22, 1.80, 359.1, 14.50, 16.5, 52
2008/03/30, 00:35:35, 2837.00, 0.00, 5.85, 6.30, 995.6, 56.4303520, -27.0151230, , 28.60, 5.87, 34.80, 996.47, 0.60, 0.9, 112.59, 79.99, 81.4, 329, 16.7, 37.25510, 35.03560, 9.0793, 35.0356, 37.2551, 97.60, 7.9268, 1482.24, 356.40, 355.8, 13.33, 14.1, 52
2008/03/30, 00:36:36, 2840.00, 0.00, 5.88, 6.30, 996.0, 56.4317120, -27.0130830, , 47.40, 6.41, 34.70, 996.72, 0.50, 1.0, 112.61, 80.09, 81.4, 331, 17.7, 37.26870, 35.04140, 9.0878, 35.0414, 37.2687, 96.10, 7.9327, 1482.26, 353.10, 354.8, 12.84, 15.5, 52
2008/03/30, 00:37:36, 2841.00, 0.00, 5.96, 6.40, 995.4, 56.4330300, -27.0109950, , 62.40, 8.24, 34.00, 997.13, 0.50, 2.3, 112.65, 81.00, 82.3, 332, 17.5, 37.28720, 35.04430, 9.1045, 35.0443, 37.2872, 96.10, 7.9378, 1482.29, 352.00, 350.3, 14.04, 15.7, 52
2008/03/30, 00:38:36, 2840.00, 0.00, 5.82, 6.40, 995.8, 56.4342720, -27.0089880, , 39.40, 5.89, 33.90, 996.77, 0.40, 2.4, 112.69, 80.78, 81.8, 327, 18.7, 37.28830, 35.04450, 9.1056, 35.0445, 37.2883, 95.50, 7.9433, 1482.31, 358.50, 351.6, 14.04, 16.5, 52
2008/03/30, 00:39:36, 2838.00, 0.00, 5.77, 6.40, 995.8, 56.4355130, -27.0069780, , 27.30, 7.25, 33.10, 997.20, 0.40, 2.1, 112.72, 80.88, 81.8, 327, 17.8, 37.30180, 35.04690, 9.1174, 35.0469, 37.3018, 95.80, 7.9478, 1482.33, 356.70, 350.5, 12.62, 14.7, 52
2008/03/30, 00:40:36, 2835.00, 0.00, 5.82, 6.40, 995.9, 56.4368730, -27.0049970, , 43.10, 6.41, 34.10, 996.44, 0.40, 1.1, 112.74, 81.40, 82.4, 332, 16.9, 37.29610, 35.04520, 9.1131, 35.0452, 37.2961, 94.80, 7.9520, 1482.35, 353.50, 355.4, 13.09, 14.5, 52
2008/03/30, 00:41:35, 2832.00, 0.00, 5.88, 6.40, 995.7, 56.4382050, -27.0029520, , 21.40, 6.80, 35.30, 996.43, 0.50, 0.6, 112.75, 81.84, 83.1, 330, 18.1, 37.32400, 35.04760, 9.1402, 35.0476, 37.3240, 95.20, 7.9558, 1482.36, 4.60, 358.6, 11.47, 14.8, 52
2008/03/30, 00:42:36, 2828.00, 0.00, 5.82, 6.30, 996.1, 56.4394000, -27.0009380, , 28.10, 6.33, 34.10, 996.98, 0.50, 0.4, 112.77, 81.35, 82.3, 331, 17.1, 37.33980, 35.04890, 9.1557, 35.0489, 37.3398, 94.60, 7.9594, 1482.37, 358.80, 357.1, 11.54, 14.2, 52
2008/03/30, 00:43:36, 2831.00, 0.00, 5.71, 6.30, 995.8, 56.4406950, -26.9989380, , 39.50, 5.95, 36.30, 997.13, 0.30, 0.4, 112.77, 80.63, 81.8, 327, 16.8, 37.33600, 35.05010, 9.1506, 35.0501, 37.3360, 94.60, 7.9633, 1482.39, 1.60, 353.3, 11.89, 14.5, 52
2008/03/30, 00:44:36, 0.00, 0.00, 5.68, 6.20, 995.3, 56.4419280, -26.9970430, , 10.50, 2.69, 37.20, 996.47, 0.30, 0.2, 112.78, 80.63, 82.0, 328, 16.5, 37.34030, 35.04910, 9.1562, 35.0491, 37.3403, 95.50, 7.9702, 1482.42, 11.10, 2.1, 13.33, 15.1, 52
2008/03/30, 00:45:36, 2838.00, 0.00, 5.79, 6.20, 995.1, 56.4429970, -26.9952330, , 40.90, 8.40, 33.70, 997.09, 0.50, 0.5, 112.79, 81.30, 82.9, 328, 14.9, 37.34480, 35.04990, 9.1600, 35.0499, 37.3448, 94.30, 7.9752, 1482.44, 343.70, 345.5, 11.12, 12.0, 52
2008/03/30, 00:46:36, 2840.00, 0.00, 5.77, 6.30, 996.2, 56.4441880, -26.9933170, , 52.90, 8.16, 35.60, 996.67, 0.50, 0.5, 112.79, 81.82, 83.3, 326, 18.0, 37.36610, 35.05090, 9.1816, 35.0509, 37.3661, 94.30, 7.9808, 1482.46, 344.40, 346.9, 10.83, 15.9, 52
2008/03/30, 00:47:36, 2838.00, 0.00, 5.71, 6.30, 995.3, 56.4455530, -26.9911830, , 52.90, 8.16, 33.70, 996.61, 0.50, 0.0, 112.79, 81.55, 82.2, 329, 17.8, 37.36490, 35.05150, 9.1798, 35.0515, 37.3649, 94.80, 7.9848, 1482.48, 346.10, 348.0, 13.70, 15.6, 52
2008/03/30, 00:48:36, 2839.00, 0.00, 5.79, 6.20, 995.7, 56.4472530, -26.9889180, , 26.10, 7.68, 34.60, 996.48, 0.40, 0.0, 112.80, 82.39, 82.1, 329, 17.0, 37.36140, 35.05140, 9.1762, 35.0514, 37.3614, 94.60, 7.9883, 1482.49, 358.00, 354.1, 12.05, 13.5, 52
2008/03/30, 00:49:36, 2839.00, 0.00, 5.82, 6.20, 996.0, 56.4488530, -26.9865750, , 73.10, 4.01, 35.20, 996.08, 0.50, 0.0, 112.80, 82.75, 82.6, 330, 19.8, 37.36330, 35.05280, 9.1768, 35.0528, 37.3633, 94.00, 7.9918, 1482.50, 356.30, 357.0, 14.66, 19.2, 52
2008/03/30, 00:50:36, 2843.00, 0.00, 5.68, 6.30, 994.7, 56.4502530, -26.9845000, , 38.50, 6.14, 35.10, 996.89, 0.50, 0.0, 112.80, 82.56, 82.1, 327, 18.1, 37.37470, 35.05360, 9.1880, 35.0536, 37.3747, 94.80, 7.9961, 1482.52, 355.70, 352.5, 13.61, 15.8, 52
2008/03/30, 00:51:36, 2843.00, 0.00, 5.79, 6.30, 995.9, 56.4517850, -26.9822570, , 37.80, 6.28, 34.60, 997.61, 0.40, 1.1, 112.82, 82.73, 82.9, 326, 18.1, 37.20960, 34.86770, 9.2018, 34.8677, 37.2096, 100.70, 7.9999, 1482.43, 355.10, 350.7, 13.76, 15.7, 52
2008/03/30, 00:52:36, 2843.00, 0.00, 5.60, 6.20, 996.2, 56.4533370, -26.9800470, , 45.50, 7.59, 33.30, 996.79, 0.10, 1.0, 112.83, 81.37, 81.7, 327, 16.7, 37.38630, 35.04470, 9.2095, 35.0447, 37.3863, 98.20, 8.0053, 1482.54, 348.80, 346.3, 13.72, 14.4, 52
2008/03/30, 00:53:36, 0.00, 0.00, 5.79, 6.20, 996.1, 56.4549700, -26.9778150, , 40.90, 7.22, 38.10, 996.70, 0.30, 0.6, 112.84, 81.94, 82.6, 327, 17.5, 37.40200, 35.05380, 9.2168, 35.0538, 37.4020, 96.40, 8.0123, 1482.56, 358.40, 353.7, 12.27, 14.8, 52
2008/03/30, 00:54:36, 2843.00, 0.00, 5.57, 6.20, 995.9, 56.4564880, -26.9755670, , 39.00, 8.77, 34.00, 997.19, 0.30, 1.1, 112.86, 81.57, 82.3, 332, 17.9, 37.39240, 35.05200, 9.2085, 35.0520, 37.3924, 95.50, 8.0224, 1482.61, 350.40, 353.2, 11.78, 14.5, 52
2008/03/30, 00:55:35, 2843.00, 0.00, 5.65, 6.10, 996.2, 56.4581370, -26.9732670, , 27.20, 9.06, 33.70, 997.11, 0.40, 1.7, 112.89, 81.15, 81.8, 327, 18.2, 37.39830, 35.03840, 9.2285, 35.0384, 37.3983, 97.00, 8.0327, 1482.59, 354.80, 349.2, 11.37, 14.3, 52
2008/03/30, 00:56:36, 2845.00, 0.00, 5.54, 6.10, 995.8, 56.4597030, -26.9706450, , 55.70, 9.37, 39.70, 996.70, 0.50, 1.1, 112.91, 81.28, 81.9, 327, 17.8, 37.31140, 34.97360, 9.2022, 34.9736, 37.3114, 98.50, 8.0443, 1482.70, 350.80, 350.0, 12.56, 15.3, 52
2008/03/30, 00:57:36, 2842.00, 0.00, 5.57, 6.10, 996.0, 56.4612070, -26.9678900, , 38.60, 7.63, 41.40, 996.99, 0.50, 1.0, 112.93, 81.47, 82.9, 325, 16.7, 37.41120, 35.05030, 9.2302, 35.0503, 37.4112, 98.00, 8.0552, 1482.74, 356.30, 354.6, 12.14, 13.7, 52
2008/03/30, 00:58:36, 2838.00, 0.00, 5.63, 6.10, 995.7, 56.4627750, -26.9650420, , 55.30, 9.86, 40.60, 996.63, 0.30, 0.7, 112.94, 81.37, 82.4, 329, 16.3, 37.40420, 35.05730, 9.2157, 35.0573, 37.4042, 98.20, 8.0669, 1482.79, 346.50, 350.9, 11.84, 13.5, 52
2008/03/30, 00:59:36, 2834.00, 0.00, 5.57, 6.10, 996.4, 56.4643230, -26.9621670, , 49.70, 6.27, 40.90, 996.93, 0.50, 0.3, 112.95, 81.35, 82.8, 325, 16.2, 37.41690, 35.05950, 9.2269, 35.0595, 37.4169, 98.80, 8.0785, 1482.84, 358.50, 354.0, 12.33, 14.2, 52
2008/03/30, 01:00:36, 2832.00, 0.00, 5.54, 6.10, 995.6, 56.4658100, -26.9595400, , 40.00, 8.85, 42.10, 997.25, 0.20, 0.6, 112.96, 81.33, 82.8, 326, 16.7, 37.41000, 35.06200, 9.2169, 35.0620, 37.4100, 99.20, 8.0904, 1482.88, 353.20, 354.5, 11.61, 13.2, 52
2008/03/30, 01:01:36, 702.00, 0.00, 5.54, 6.10, 995.8, 56.4672020, -26.9569130, , 46.30, 6.01, 43.00, 997.32, 0.30, 0.7, 112.97, 81.15, 82.7, 327, 16.5, 37.45180, 35.06450, 9.2588, 35.0645, 37.4518, 99.50, 8.1017, 1482.93, 359.50, 359.8, 12.95, 14.2, 52
2008/03/30, 01:02:36, 2839.00, 0.00, 5.51, 6.10, 995.9, 56.4685780, -26.9544020, , 41.80, 8.18, 39.70, 996.70, 0.20, 0.0, 112.97, 81.28, 82.9, 324, 15.8, 37.45340, 35.06730, 9.2576, 35.0673, 37.4534, 98.80, 8.1113, 1482.97, 352.60, 349.1, 11.97, 12.9, 52
2008/03/30, 01:03:35, 2842.00, 0.00, 5.57, 6.00, 996.1, 56.4699970, -26.9516770, , 40.50, 9.06, 42.20, 997.36, 0.40, 0.3, 112.97, 81.03, 82.8, 327, 15.8, 37.48270, 35.06910, 9.2869, 35.0691, 37.4827, 98.20, 8.1190, 1483.00, 353.20, 354.6, 10.76, 12.2, 52
2008/03/30, 01:04:36, 2841.00, 0.00, 5.63, 6.10, 996.4, 56.4714380, -26.9488470, , 58.20, 7.97, 41.30, 997.19, 0.40, 0.1, 112.98, 80.78, 83.0, 326, 16.2, 37.46860, 35.07200, 9.2690, 35.0720, 37.4686, 100.70, 8.1234, 1483.02, 352.20, 351.5, 12.30, 14.1, 52
2008/03/30, 01:05:36, 2837.00, 0.00, 5.60, 6.10, 996.3, 56.4730030, -26.9460230, , 38.20, 8.16, 40.70, 996.96, 0.40, 0.1, 112.98, 80.83, 82.8, 329, 17.5, 37.49040, 35.07600, 9.2880, 35.0760, 37.4904, 98.00, 8.1242, 1483.03, 355.70, 358.5, 11.50, 14.1, 52
2008/03/30, 01:06:36, 2839.00, 0.00, 5.65, 6.10, 995.6, 56.4745070, -26.9432380, , 50.70, 8.09, 41.70, 996.46, 0.50, 0.5, 112.99, 80.66, 82.4, 324, 16.4, 37.49410, 35.07670, 9.2912, 35.0767, 37.4941, 98.00, 8.1234, 1483.03, 354.00, 350.6, 12.46, 13.9, 52
2008/03/30, 01:07:36, 2838.00, 0.00, 5.63, 6.10, 996.2, 56.4759880, -26.9405800, , 52.00, 9.37, 43.00, 997.16, 0.30, 0.3, 112.99, 81.79, 82.5, 328, 15.8, 37.51610, 35.07820, 9.3130, 35.0782, 37.5161, 98.50, 8.1221, 1483.02, 348.50, 353.5, 12.16, 12.7, 52
2008/03/30, 01:08:36, 2836.00, 0.00, 5.57, 6.20, 996.3, 56.4774920, -26.9377380, , 42.10, 9.40, 42.40, 996.83, 0.40, 0.3, 113.00, 83.42, 83.7, 327, 14.9, 37.52150, 35.07860, 9.3184, 35.0786, 37.5215, 98.80, 8.1198, 1483.02, 352.10, 352.7, 10.64, 11.3, 52
2008/03/30, 01:09:36, 2836.00, 0.00, 5.71, 6.20, 996.2, 56.4790980, -26.9348220, , 48.60, 9.56, 42.30, 996.20, 0.60, 0.1, 113.00, 84.03, 83.7, 326, 15.6, 37.54330, 35.07920, 9.3408, 35.0792, 37.5433, 99.50, 8.1182, 1483.01, 346.70, 350.3, 10.93, 12.4, 52
2008/03/30, 01:10:36, 2836.00, 0.00, 5.57, 6.30, 996.3, 56.4807000, -26.9319650, , 38.10, 7.38, 40.40, 996.96, 0.40, 0.0, 113.00, 83.98, 84.0, 325, 16.1, 37.54020, 35.07970, 9.3370, 35.0797, 37.5402, 98.80, 8.1175, 1483.01, 352.30, 353.5, 11.71, 13.2, 52
2008/03/30, 01:11:36, 2837.00, 0.00, 5.71, 6.20, 996.2, 56.4821330, -26.9292600, , 39.20, 7.83, 42.60, 996.90, 0.60, 1.8, 113.03, 84.11, 83.6, 326, 16.4, 37.53970, 35.07410, 9.3422, 35.0741, 37.5397, 98.80, 8.1169, 1483.00, 352.20, 356.6, 10.19, 13.2, 52
2008/03/30, 01:12:36, 2836.00, 0.00, 5.77, 6.30, 996.1, 56.4837450, -26.9262800, , 46.10, 9.41, 42.60, 997.57, 0.40, 0.4, 113.04, 84.45, 84.9, 328, 16.5, 37.52150, 35.07090, 9.3262, 35.0709, 37.5215, 99.20, 8.1161, 1482.99, 351.50, 355.0, 10.62, 13.0, 52
2008/03/30, 01:13:35, 2833.00, 0.00, 5.74, 6.30, 996.1, 56.4853480, -26.9233380, , 47.90, 6.34, 39.00, 996.89, 0.50, 1.2, 113.06, 84.47, 84.5, 324, 16.4, 37.51610, 35.06060, 9.3309, 35.0606, 37.5161, 99.50, 8.1157, 1482.99, 353.60, 351.0, 12.28, 14.4, 52
2008/03/30, 01:14:35, 2831.00, 0.00, 5.63, 6.30, 996.4, 56.4870020, -26.9204400, , 44.90, 6.63, 42.40, 996.55, 0.50, 0.7, 113.08, 84.40, 84.5, 327, 15.8, 37.51360, 35.06900, 9.3197, 35.0690, 37.5136, 98.80, 8.1158, 1482.99, 355.10, 357.9, 12.26, 13.3, 52
2008/03/30, 01:15:35, 2833.00, 0.00, 5.77, 6.30, 995.7, 56.4886570, -26.9174570, , 43.80, 9.45, 42.20, 997.06, 0.40, 1.3, 113.10, 84.45, 84.6, 325, 14.4, 37.52020, 35.06750, 9.3282, 35.0675, 37.5202, 99.50, 8.1153, 1482.98, 348.40, 348.7, 10.10, 11.1, 52
2008/03/30, 01:16:36, 2838.00, 0.00, 5.79, 6.30, 996.7, 56.4902950, -26.9145950, , 39.60, 10.39, 42.40, 996.78, 0.60, 0.3, 113.10, 84.74, 85.1, 322, 16.6, 37.50290, 35.06540, 9.3120, 35.0654, 37.5029, 98.80, 8.1155, 1482.98, 345.80, 347.2, 9.36, 12.8, 52
2008/03/30, 01:17:36, 2838.00, 0.00, 5.63, 6.40, 996.7, 56.4918750, -26.9117330, , 43.40, 7.67, 40.00, 996.17, 0.60, 0.4, 113.11, 84.89, 84.9, 325, 16.6, 37.50080, 35.06590, 9.3093, 35.0659, 37.5008, 100.40, 8.1155, 1482.99, 349.60, 351.9, 11.60, 13.9, 52
2008/03/30, 01:18:36, 2830.00, 0.00, 5.71, 6.40, 995.9, 56.4936620, -26.9086700, , 39.30, 9.82, 41.20, 997.30, 0.50, 0.5, 113.12, 84.67, 84.1, 324, 16.1, 37.52010, 35.06510, 9.3306, 35.0651, 37.5201, 99.70, 8.1150, 1482.98, 351.20, 348.8, 10.99, 12.4, 52
2008/03/30, 01:19:36, 2826.00, 0.00, 5.77, 6.40, 996.4, 56.4953750, -26.9055620, , 49.20, 8.86, 43.30, 997.45, 0.60, 2.1, 113.16, 84.69, 84.3, 323, 15.4, 37.50290, 35.06300, 9.3146, 35.0630, 37.5029, 98.80, 8.1150, 1482.98, 347.20, 349.0, 11.46, 12.6, 52
2008/03/30, 01:20:36, 2825.00, 0.00, 5.88, 6.40, 996.4, 56.4970330, -26.9024770, , 37.60, 7.81, 39.80, 997.19, 0.50, 0.6, 113.17, 84.67, 84.5, 324, 16.8, 37.49830, 35.06470, 9.3080, 35.0647, 37.4983, 99.20, 8.1154, 1482.98, 347.70, 351.5, 11.58, 13.8, 52
2008/03/30, 01:21:36, 2820.00, 0.00, 5.85, 6.50, 995.6, 56.4988450, -26.8994100, , 29.00, 8.92, 40.40, 997.07, 0.50, 0.8, 113.18, 84.64, 84.7, 326, 16.1, 37.50080, 35.06420, 9.3110, 35.0642, 37.5008, 98.20, 8.1150, 1482.98, 351.90, 354.8, 11.26, 12.1, 52
2008/03/30, 01:22:36, 2818.00, 0.00, 5.93, 6.50, 996.1, 56.5004630, -26.8965070, , 49.90, 10.06, 39.60, 996.83, 0.50, 1.8, 113.21, 84.45, 84.3, 323, 16.2, 37.49350, 35.06560, 9.3019, 35.0656, 37.4935, 98.50, 8.1154, 1482.98, 344.90, 343.1, 12.07, 13.4, 52
2008/03/30, 01:23:36, 2819.00, 0.00, 5.79, 6.50, 996.7, 56.5020950, -26.8935770, , 40.70, 7.66, 39.90, 996.65, 0.50, 0.3, 113.22, 84.11, 83.8, 324, 18.2, 37.49310, 35.06370, 9.3034, 35.0637, 37.4931, 98.00, 8.1166, 1482.99, 353.30, 352.2, 12.96, 15.3, 52
2008/03/30, 01:24:36, 2822.00, 0.00, 5.71, 6.40, 996.0, 56.5037580, -26.8906720, , 56.80, 10.40, 41.60, 997.09, 0.30, 0.0, 113.22, 84.77, 83.1, 324, 17.1, 37.49720, 35.06390, 9.3075, 35.0639, 37.4972, 98.50, 8.1175, 1482.99, 344.60, 346.0, 13.05, 14.6, 52
2008/03/30, 01:25:36, 2823.00, 0.00, 5.74, 6.40, 996.5, 56.5054220, -26.8877270, , 43.80, 7.42, 42.80, 997.30, 0.60, 0.0, 113.22, 85.43, 83.5, 327, 16.9, 37.49180, 35.06190, 9.3038, 35.0619, 37.4918, 97.30, 8.1186, 1482.99, 356.90, 358.1, 12.28, 14.0, 52
2008/03/30, 01:26:35, 2824.00, 0.00, 5.77, 6.40, 996.3, 56.5070650, -26.8846720, , 45.30, 8.00, 40.70, 997.17, 0.60, 0.0, 113.22, 85.21, 83.5, 327, 17.7, 37.49740, 35.06340, 9.3083, 35.0634, 37.4974, 97.60, 8.1207, 1483.00, 358.60, 355.0, 11.50, 14.8, 52
2008/03/30, 01:27:36, 2825.00, 0.00, 5.79, 6.50, 995.9, 56.5087680, -26.8816420, , 50.00, 9.00, 42.40, 997.09, 0.60, 0.0, 113.22, 84.72, 83.2, 330, 18.1, 37.49290, 35.06310, 9.3038, 35.0631, 37.4929, 97.30, 8.1242, 1483.01, 359.60, 358.4, 11.80, 14.9, 52
2008/03/30, 01:28:36, 2827.00, 0.00, 5.79, 6.50, 996.0, 56.5103350, -26.8786680, , 51.20, 8.29, 42.30, 997.29, 0.50, 0.0, 113.22, 83.69, 82.2, 326, 17.7, 37.48650, 35.06520, 9.2949, 35.0652, 37.4865, 98.00, 8.1292, 1483.03, 359.60, 354.2, 12.64, 15.0, 52
2008/03/30, 01:29:36, 2822.00, 0.00, 5.79, 6.40, 996.0, 56.5118680, -26.8758950, , 27.60, 7.12, 42.20, 997.55, 0.50, 0.0, 113.22, 82.93, 81.6, 326, 17.0, 37.49840, 35.06280, 9.3100, 35.0628, 37.4984, 99.70, 8.1341, 1483.05, 3.80, 0.1, 11.91, 13.7, 52
2008/03/30, 01:30:36, 2819.00, 0.00, 5.91, 6.40, 995.7, 56.5134500, -26.8730350, , 35.80, 9.90, 40.80, 996.20, 0.40, 0.0, 113.22, 82.36, 81.6, 333, 16.2, 37.29670, 34.83350, 9.3297, 34.8335, 37.2967, 109.20, 8.1394, 1482.83, 352.60, 1.1, 10.80, 11.8, 52
2008/03/30, 01:31:36, 2814.00, 0.00, 5.93, 6.50, 996.3, 56.5150880, -26.8701820, , 52.40, 7.73, 43.20, 997.52, 0.50, 0.0, 113.22, 81.75, 81.2, 325, 16.9, 37.43240, 34.99190, 9.3121, 34.9919, 37.4324, 102.50, 8.1436, 1483.04, 2.50, 354.3, 12.00, 14.5, 52